Temperature
-2 -1 -2 -2 -2 -3 -4 -3 -3 -3 -2 -2 -2 -3 -2 -2 -2 -3 -3 -3 -3 -3 -3 -3 -3 -3 -3 -3 -3 -2 -2 -2 -1 -1 -1 -1 -0 -0 0 0 0 0 1 1
-3 -2 -2 -2 -2 -3 -3 -3 -4 -3 -3 -2 -2 -2 -2 -2 -3 -3 -3 -4 -4 -4 -4 -4 -4 -3 -3 -3 -3 -3 -3 -2 -2 -2 -2 -1 -1 -1 -0 -0 -0 -0 0 1
-2 -2 -3 -3 -3 -3 -4 -4 -4 -4 -3 -3 -3 -3 -3 -3 -3 -4 -4 -4 -4 -4 -4 -4 -4 -4 -4 -4 -4 -4 -3 -3 -3 -3 -2 -2 -2 -2 -1 -1 -1 -1 -0 -0
-3 -3 -3 -2 -3 -3 -4 -4 -4 -4 -4 -3 -3 -3 -3 -3 -4 -4 -4 -5 -5 -5 -5 -5 -5 -5 -5 -5 -4 -4 -4 -4 -3 -3 -3 -3 -2 -2 -2 -2 -2 -1 -1 -1
-3 -3 -2 -2 -3 -4 -4 -4 -4 -4 -4 -3 -3 -4 -4 -4 -4 -5 -5 -5 -5 -5 -5 -5 -5 -5 -5 -5 -5 -5 -5 -4 -4 -4 -4 -3 -3 -3 -3 -3 -2 -2 -2 -1
-4 -4 -3 -2 -4 -4 -4 -5 -4 -4 -4 -4 -5 -6 -5 -4 -5 -5 -5 -5 -6 -6 -6 -6 -5 -6 -6 -6 -5 -5 -5 -5 -5 -5 -4 -4 -4 -4 -3 -3 -3 -3 -2 -2
-5 -4 -3 -4 -5 -4 -4 -4 -4 -4 -4 -5 -5 -6 -5 -5 -6 -6 -6 -6 -6 -6 -6 -6 -6 -6 -6 -6 -6 -6 -6 -5 -5 -5 -5 -5 -5 -4 -4 -4 -4 -3 -3 -3
-5 -5 -4 -5 -6 -5 -5 -4 -4 -4 -4 -5 -5 -6 -6 -6 -6 -7 -7 -6 -7 -7 -7 -7 -7 -7 -7 -6 -6 -6 -6 -6 -6 -5 -5 -5 -5 -5 -5 -5 -4 -4 -4 -4
-5 -4 -4 -4 -4 -4 -4 -5 -5 -5 -5 -6 -6 -6 -7 -7 -7 -7 -7 -7 -7 -7 -7 -7 -7 -7 -7 -7 -7 -7 -7 -6 -6 -6 -6 -6 -6 -6 -5 -5 -5 -5 -5 -5
-5 -5 -4 -4 -4 -4 -5 -5 -5 -6 -6 -6 -7 -7 -7 -7 -8 -8 -8 -8 -8 -8 -8 -8 -8 -8 -8 -8 -7 -7 -7 -7 -7 -6 -6 -6 -6 -6 -6 -6 -6 -5 -5 -5
-6 -6 -5 -4 -5 -5 -5 -5 -6 -6 -6 -7 -7 -8 -8 -8 -8 -8 -8 -8 -8 -8 -8 -8 -8 -8 -8 -8 -8 -8 -8 -7 -7 -7 -7 -7 -7 -7 -7 -6 -6 -6 -6 -6
-6 -5 -6 -5 -5 -5 -6 -6 -6 -7 -7 -7 -8 -8 -8 -8 -8 -9 -9 -9 -9 -9 -9 -9 -9 -8 -8 -8 -8 -8 -8 -8 -8 -8 -8 -7 -7 -7 -7 -7 -7 -6 -6 -6
-5 -5 -5 -6 -6 -6 -6 -7 -7 -7 -7 -8 -8 -8 -8 -9 -9 -9 -9 -9 -9 -9 -9 -9 -9 -9 -9 -9 -9 -9 -9 -8 -8 -8 -8 -8 -8 -8 -7 -7 -7 -7 -7 -7
-6 -6 -7 -6 -7 -7 -7 -7 -8 -8 -8 -8 -8 -9 -9 -9 -9 -9 -9 -9 -9 -9 -9 -9 -9 -9 -9 -9 -9 -9 -9 -9 -9 -9 -9 -9 -8 -8 -8 -8 -8 -7 -7 -7
-7 -7 -7 -7 -7 -7 -8 -8 -8 -8 -8 -8 -9 -9 -9 -9 -9 -9 -9 -10 -10 -10 -10 -9 -9 -9 -9 -10 -9 -9 -9 -9 -9 -9 -9 -9 -9 -9 -9 -9 -8 -8 -8 -8
-7 -7 -8 -8 -8 -8 -8 -8 -9 -9 -9 -9 -9 -9 -9 -10 -10 -10 -10 -10 -10 -10 -10 -10 -10 -10 -10 -10 -10 -10 -10 -10 -10 -10 -9 -9 -9 -9 -9 -9 -9 -9 -9 -9
-8 -8 -8 -8 -8 -8 -8 -9 -9 -9 -9 -9 -9 -10 -10 -10 -10 -10 -10 -10 -10 -10 -10 -10 -10 -10 -10 -10 -10 -10 -10 -10 -10 -10 -10 -10 -10 -10 -10 -10 -10 -10 -10 -9
-8 -8 -8 -8 -9 -9 -9 -9 -9 -9 -9 -10 -10 -10 -10 -10 -10 -10 -10 -11 -11 -10 -10 -11 -11 -11 -11 -11 -11 -11 -11 -11 -10 -10 -10 -10 -10 -10 -10 -10 -10 -10 -10 -10
-8 -8 -8 -9 -9 -9 -9 -9 -9 -9 -10 -10 -10 -10 -10 -11 -11 -11 -11 -11 -11 -11 -11 -11 -11 -11 -11 -11 -11 -11 -11 -11 -11 -11 -11 -11 -11 -11 -11 -11 -11 -11 -10 -10
-8 -8 -9 -9 -9 -9 -9 -9 -10 -10 -10 -10 -10 -10 -11 -11 -11 -11 -11 -11 -12 -12 -12 -11 -11 -11 -11 -11 -12 -12 -11 -11 -11 -11 -11 -11 -11 -11 -11 -11 -11 -11 -11 -11
-9 -9 -9 -9 -9 -9 -10 -10 -10 -10 -10 -10 -11 -11 -11 -11 -11 -11 -12 -12 -12 -12 -12 -12 -12 -12 -12 -12 -12 -12 -12 -12 -12 -12 -12 -12 -12 -11 -11 -11 -11 -11 -11 -11
-9 -9 -9 -9 -10 -10 -10 -10 -10 -10 -10 -11 -11 -11 -11 -11 -11 -12 -12 -12 -12 -12 -12 -12 -12 -12 -12 -12 -12 -12 -12 -12 -12 -12 -12 -12 -12 -12 -12 -12 -12 -12 -11 -11
-9 -9 -10 -10 -10 -10 -10 -10 -11 -11 -11 -11 -11 -11 -11 -11 -12 -12 -12 -12 -12 -12 -12 -12 -12 -12 -12 -12 -12 -12 -12 -12 -12 -12 -12 -12 -12 -12 -12 -12 -12 -12 -12 -12
-9 -10 -10 -10 -10 -11 -11 -11 -11 -11 -11 -11 -11 -11 -12 -12 -12 -12 -12 -12 -12 -12 -12 -12 -12 -12 -13 -13 -13 -13 -13 -13 -13 -13 -13 -13 -13 -12 -12 -12 -12 -12 -12 -12
-10 -10 -10 -10 -11 -11 -11 -11 -11 -11 -11 -11 -12 -12 -12 -12 -12 -12 -12 -12 -12 -13 -13 -13 -13 -13 -13 -13 -13 -13 -13 -13 -13 -13 -13 -13 -13 -13 -13 -13 -13 -13 -12 -12
-10 -10 -10 -11 -11 -11 -11 -11 -11 -11 -12 -12 -12 -12 -12 -12 -12 -12 -12 -12 -13 -13 -13 -13 -13 -13 -13 -13 -13 -13 -13 -13 -13 -13 -13 -13 -13 -13 -13 -13 -13 -13 -13 -12
-10 -11 -11 -11 -11 -11 -12 -12 -12 -12 -12 -12 -12 -12 -13 -13 -13 -13 -13 -13 -13 -13 -13 -13 -13 -13 -13 -13 -13 -13 -13 -13 -13 -13 -13 -13 -13 -13 -13 -13 -13 -13 -13 -13
Wind_Speed
9 8 5 8 9 7 9 9 9 10 11 11 6 6 7 6 7 7 6 6 6 6 6 6 5 5 5 6 6 6 5 5 5 5 4 4 4 4 4 4 5 5 4 4
7 7 7 10 11 10 11 10 12 13 14 9 6 5 6 6 7 7 7 7 7 6 7 6 6 5 6 6 6 6 6 5 5 5 5 4 4 4 5 4 4 5 4 4
5 2 5 9 9 10 7 7 7 10 10 5 5 6 6 6 6 7 7 8 8 8 7 6 5 5 5 6 6 6 6 5 5 5 5 5 5 5 5 5 5 4 4 4
4 4 6 6 1 4 6 8 8 8 7 5 5 6 6 4 5 7 7 8 8 7 7 6 5 5 5 6 5 5 5 5 5 5 6 6 5 5 5 4 4 4 4 4
3 5 8 4 2 3 4 6 6 8 7 5 5 6 5 3 3 5 6 6 7 7 7 6 6 6 6 6 5 5 5 6 6 5 6 6 6 5 4 4 4 4 4 4
3 4 6 4 1 2 1 5 2 3 4 4 3 4 5 5 6 6 6 6 6 6 6 6 6 5 5 6 6 6 6 6 6 5 6 6 6 5 4 4 4 4 4 4
6 6 7 2 2 3 1 5 2 1 2 2 3 5 5 6 6 5 6 6 6 6 6 5 6 6 6 6 6 7 6 6 6 6 5 5 5 4 4 4 4 3 4 4
5 6 8 3 4 4 5 2 2 2 2 3 4 5 6 6 6 6 6 7 6 6 6 6 5 5 6 7 7 6 6 6 6 6 5 5 4 4 4 3 3 3 3 3
7 7 2 6 4 3 0 2 3 3 3 3 4 6 6 6 6 6 6 6 6 5 6 6 6 5 6 7 7 6 6 6 6 6 5 5 4 4 4 3 2 3 2 3
5 6 4 4 3 2 2 3 3 3 3 3 5 6 6 6 6 5 6 5 5 5 6 6 6 6 6 7 7 6 6 6 6 6 6 5 4 3 3 3 2 2 2 3
6 6 5 3 2 3 2 2 3 4 3 3 4 6 5 5 6 5 6 5 5 5 5 7 6 6 7 7 6 6 6 6 6 5 5 5 5 4 4 3 3 3 2 3
6 3 2 3 2 2 2 3 4 4 4 4 4 5 5 5 5 5 5 5 5 6 6 7 7 7 7 6 5 5 6 6 5 4 4 4 4 5 6 6 7 7 6 5
4 2 2 4 3 2 2 3 3 4 4 5 4 4 4 4 5 5 5 5 6 6 6 6 7 7 7 6 6 5 5 5 4 4 4 4 4 4 5 6 7 7 7 7
2 1 3 3 3 3 2 2 3 3 3 3 3 3 3 4 4 5 6 6 6 6 6 6 7 7 7 6 6 6 6 6 5 4 4 4 4 4 4 4 5 5 6 7
2 2 3 3 2 2 2 2 3 4 4 4 3 3 3 4 5 6 6 6 6 6 6 6 6 7 6 6 6 6 5 4 4 4 3 3 3 3 3 4 3 4 4 5
2 2 3 3 4 3 3 3 3 4 4 4 4 4 4 5 5 6 5 5 5 6 7 6 7 7 6 6 6 5 5 7 6 4 3 3 3 3 4 3 3 3 4 4
2 3 3 3 4 4 4 4 4 4 4 4 4 4 4 5 5 6 6 5 5 6 6 6 7 6 5 5 5 5 5 5 7 5 4 4 4 4 3 3 3 3 3 4
3 3 3 4 4 4 5 4 3 3 4 4 4 3 4 4 5 6 6 6 6 6 6 6 6 6 5 5 5 4 4 4 4 4 4 4 4 4 3 3 3 4 3 4
2 3 3 3 3 3 4 4 3 3 3 3 3 4 5 5 5 5 5 5 6 7 7 6 9 7 5 6 6 4 4 4 4 4 4 5 5 4 3 3 3 3 3 3
2 2 2 2 2 2 3 3 3 3 3 3 3 4 5 5 4 5 5 5 5 5 6 7 6 5 5 6 6 3 4 4 4 4 4 4 4 3 3 3 3 3 3 3
2 2 2 2 2 2 2 2 2 3 3 3 3 4 5 5 4 4 5 6 5 5 6 8 5 5 5 6 6 4 4 4 4 4 4 4 4 3 3 3 3 4 3 3
2 2 2 2 2 3 3 2 2 3 3 3 4 4 4 5 5 5 5 4 5 8 6 5 5 7 7 7 4 4 4 4 4 4 4 4 4 4 4 4 3 4 3 3
2 2 2 2 2 3 3 2 2 2 3 4 4 4 4 5 4 4 5 4 4 8 6 5 7 10 9 5 4 4 4 4 4 4 4 4 4 4 4 4 3 3 3 3
1 2 2 2 1 2 3 3 3 3 3 4 4 4 3 4 4 3 4 7 9 9 5 7 10 10 9 4 3 4 4 4 4 4 4 4 3 4 4 4 4 3 3 4
1 1 1 1 1 2 3 3 3 3 3 3 4 4 3 2 3 4 4 5 8 8 5 8 10 10 6 4 4 4 4 4 4 4 3 4 4 4 4 4 4 4 4 4
1 1 1 2 2 2 2 2 2 3 3 3 4 3 3 3 3 4 4 5 6 8 6 5 6 7 5 4 4 4 4 5 5 5 4 4 4 4 4 4 5 4 4 4
1 1 1 1 1 1 2 2 2 3 3 3 4 4 4 3 3 4 4 4 5 5 5 5 5 5 4 4 5 5 4 4 4 4 4 4 4 4 5 5 5 5 5 5
Wind_Direction
261 268 263 263 261 232 225 233 243 263 272 281 298 305 309 315 319 318 321 321 318 320 321 319 317 319 323 323 326 327 320 319 317 314 311 310 308 303 300 289 273 268 259 256
270 246 250 264 258 242 239 242 248 265 273 276 304 311 309 310 311 312 317 322 323 320 318 315 312 315 320 321 324 323 317 318 322 319 316 314 310 306 298 289 279 274 264 257
274 270 298 269 244 222 227 224 218 244 259 297 312 305 302 307 312 310 315 322 322 321 316 311 312 315 310 312 319 314 313 317 324 323 318 312 314 313 305 293 280 273 276 272
280 316 254 245 173 184 224 247 231 252 278 290 294 301 293 300 309 313 322 323 321 322 323 318 317 321 316 318 314 306 308 315 321 322 315 311 310 304 302 296 289 283 282 281
261 271 272 265 208 166 209 270 239 245 269 290 317 318 298 315 322 316 321 319 318 321 320 320 322 323 320 320 321 313 313 320 322 320 314 310 306 304 304 302 299 296 290 282
241 254 259 260 116 100 108 280 268 234 268 299 339 316 299 337 339 328 327 326 327 328 327 329 327 328 321 315 319 320 320 315 311 311 310 308 306 303 301 296 293 291 291 284
237 247 264 249 148 112 183 267 316 286 275 284 260 263 294 321 326 329 330 330 333 330 328 327 333 335 325 321 319 317 317 314 308 306 306 305 307 307 302 301 301 295 292 291
207 229 256 165 142 187 233 289 306 305 297 291 294 303 311 316 321 329 330 330 333 333 328 330 337 335 328 321 317 319 319 317 316 316 315 315 312 312 311 309 303 300 301 305
205 220 239 172 199 227 287 299 307 317 314 309 306 305 310 313 316 319 321 323 328 327 326 329 334 334 325 318 322 323 323 321 322 325 325 322 316 315 317 314 302 301 298 302
262 265 265 232 242 264 257 266 299 314 312 312 301 303 308 311 313 316 318 321 325 326 328 327 330 330 323 321 325 325 325 324 324 327 326 326 323 319 316 315 306 300 299 303
255 277 301 279 264 277 288 301 307 309 303 296 298 300 301 304 308 311 314 317 319 318 319 318 322 325 325 329 331 327 324 325 326 327 324 328 327 326 323 318 305 303 290 292
241 248 235 273 312 301 285 288 290 297 303 300 287 291 299 300 304 307 309 315 317 317 317 318 321 321 323 326 327 325 324 325 325 326 326 326 328 330 330 321 323 324 323 312
234 291 270 277 297 294 269 280 288 284 283 292 294 291 296 300 305 310 312 314 313 311 313 315 318 319 321 324 325 323 316 317 319 321 323 324 326 328 326 326 326 330 331 327
241 277 283 285 292 301 290 286 287 289 293 293 297 303 305 306 308 309 308 309 311 312 312 311 313 315 321 325 324 322 316 315 316 313 315 316 318 317 317 320 326 326 326 330
274 245 254 293 314 320 318 317 313 309 314 316 317 316 313 308 304 304 306 311 314 313 312 313 315 315 324 325 322 319 315 316 315 312 315 316 316 316 314 315 320 324 332 338
276 267 259 271 283 293 302 302 299 299 305 309 314 314 310 306 304 305 309 313 315 313 314 315 312 313 320 321 319 316 312 315 318 317 318 318 317 315 317 318 322 326 329 333
239 266 274 282 287 289 279 276 276 284 293 298 301 308 313 313 312 312 312 313 310 306 308 311 311 314 317 317 315 312 311 315 318 319 316 315 315 313 312 313 315 316 315 321
241 247 243 251 263 278 283 281 279 284 289 292 302 308 306 303 302 307 312 316 317 315 313 314 316 319 317 316 312 310 311 311 314 310 309 311 309 310 309 308 309 309 311 321
263 261 261 262 261 262 268 272 276 280 289 296 297 293 292 292 295 303 310 314 315 315 319 320 321 324 314 313 318 311 312 312 311 310 309 308 310 312 312 311 310 311 312 316
275 276 274 275 275 267 269 275 283 288 290 292 293 297 299 300 303 307 308 303 299 298 308 316 322 320 315 312 317 310 310 310 310 311 313 312 310 312 313 310 309 308 309 311
280 285 286 288 290 286 278 280 279 282 289 287 284 287 293 300 302 304 305 306 308 311 315 317 323 318 315 315 315 312 310 309 308 308 310 312 313 311 310 310 309 309 307 307
285 286 291 297 299 299 297 290 277 279 288 292 292 295 302 305 306 304 293 287 302 316 323 317 318 315 318 318 316 314 311 309 308 308 309 310 310 309 309 306 304 304 305 305
290 291 296 296 293 297 304 297 285 284 286 288 289 291 292 293 296 300 307 310 311 317 322 315 319 319 318 323 316 312 311 310 307 306 308 310 311 310 309 307 306 306 306 306
299 297 297 302 311 309 306 309 310 304 293 290 288 285 287 299 303 293 292 310 320 320 320 319 325 327 330 337 327 320 315 312 311 311 312 310 308 306 305 306 306 306 302 299
294 290 290 295 294 292 299 311 314 308 307 307 306 304 297 285 286 303 310 311 317 323 325 325 327 330 335 331 326 321 318 311 309 312 310 309 306 305 306 308 308 305 300 297
281 278 274 269 271 286 302 307 307 310 316 318 319 320 319 314 308 310 314 316 320 325 329 326 327 328 332 326 322 319 317 316 318 320 317 313 309 307 306 308 308 304 300 296
296 301 308 313 312 309 306 303 304 308 312 311 312 316 321 323 322 322 322 323 324 326 326 327 329 329 329 327 323 322 319 317 315 313 312 311 309 307 306 303 301 299 296 293
Height
1530 1527 1527 1527 1526 1527 1529 1526 1525 1514 1509 1502 1502 1501 1500 1497 1495 1493 1491 1489 1487 1484 1482 1480 1478 1475 1473 1472 1470 1468 1468 1466 1464 1464 1464 1464 1465 1465 1466 1466 1467 1467 1469 1470
1529 1523 1523 1522 1519 1520 1521 1520 1518 1513 1507 1500 1500 1499 1498 1496 1494 1491 1489 1487 1485 1482 1480 1478 1475 1473 1470 1469 1466 1465 1464 1462 1461 1461 1460 1460 1460 1461 1461 1462 1462 1463 1464 1465
1527 1521 1523 1520 1511 1512 1513 1510 1511 1509 1503 1499 1499 1497 1496 1494 1492 1490 1487 1485 1482 1480 1477 1475 1473 1470 1468 1465 1463 1462 1460 1459 1458 1458 1457 1457 1456 1456 1456 1457 1457 1458 1459 1460
1529 1527 1527 1507 1503 1504 1506 1505 1504 1501 1499 1498 1497 1495 1493 1492 1490 1487 1485 1482 1479 1476 1474 1472 1470 1467 1465 1462 1460 1459 1458 1456 1455 1454 1454 1453 1452 1452 1452 1452 1453 1453 1454 1455
1529 1526 1513 1505 1503 1504 1506 1503 1498 1498 1496 1496 1495 1493 1490 1489 1488 1486 1483 1480 1477 1474 1471 1469 1467 1464 1462 1459 1458 1457 1454 1453 1452 1451 1450 1449 1448 1448 1448 1448 1448 1449 1449 1451
1529 1527 1516 1503 1503 1501 1504 1504 1495 1495 1495 1495 1494 1495 1490 1488 1486 1483 1481 1477 1474 1471 1469 1466 1464 1462 1460 1458 1456 1454 1452 1451 1450 1449 1447 1446 1445 1444 1444 1444 1444 1445 1446 1447
1529 1524 1510 1503 1502 1503 1508 1501 1495 1493 1493 1493 1493 1492 1489 1486 1483 1481 1478 1475 1472 1469 1466 1464 1462 1460 1458 1455 1453 1451 1450 1449 1447 1446 1444 1443 1442 1441 1441 1441 1441 1441 1442 1443
1524 1522 1512 1502 1502 1503 1500 1495 1494 1492 1492 1491 1490 1488 1486 1484 1481 1478 1475 1472 1469 1467 1464 1462 1460 1458 1455 1453 1451 1449 1447 1445 1444 1443 1442 1440 1439 1439 1438 1438 1438 1438 1438 1438
1511 1507 1499 1497 1496 1496 1495 1494 1492 1491 1490 1489 1487 1485 1483 1481 1478 1476 1473 1470 1468 1465 1462 1460 1458 1456 1453 1451 1449 1447 1444 1442 1441 1440 1439 1438 1437 1436 1435 1435 1435 1434 1435 1434
1504 1497 1495 1495 1494 1494 1493 1492 1490 1489 1488 1486 1485 1482 1480 1478 1476 1473 1471 1468 1466 1463 1460 1458 1456 1454 1452 1449 1447 1444 1442 1440 1438 1437 1436 1435 1434 1433 1433 1432 1432 1432 1432 1431
1500 1495 1493 1491 1491 1491 1490 1489 1488 1486 1485 1484 1482 1480 1478 1475 1473 1471 1468 1466 1464 1461 1458 1456 1454 1452 1450 1447 1445 1442 1439 1437 1436 1435 1434 1432 1431 1431 1430 1429 1430 1430 1429 1429
1495 1492 1492 1490 1488 1488 1487 1486 1485 1484 1482 1481 1480 1477 1475 1473 1471 1469 1466 1464 1462 1459 1457 1454 1452 1449 1447 1445 1443 1440 1438 1436 1434 1433 1432 1430 1429 1428 1428 1428 1427 1427 1427 1427
1489 1488 1488 1487 1486 1485 1484 1483 1482 1481 1479 1478 1476 1475 1473 1471 1469 1466 1464 1462 1459 1457 1455 1452 1449 1447 1445 1443 1441 1438 1436 1434 1433 1432 1430 1429 1427 1426 1425 1425 1424 1424 1423 1423
1486 1486 1485 1484 1484 1483 1482 1481 1480 1478 1477 1476 1474 1472 1470 1468 1466 1464 1462 1459 1457 1455 1452 1450 1447 1445 1443 1441 1439 1437 1435 1433 1432 1430 1429 1427 1426 1425 1423 1422 1420 1419 1420 1420
1484 1484 1483 1482 1481 1481 1479 1478 1477 1475 1474 1472 1471 1469 1468 1465 1463 1461 1459 1457 1455 1452 1450 1447 1445 1443 1441 1439 1437 1435 1433 1431 1430 1429 1427 1426 1425 1423 1422 1421 1419 1418 1417 1417
1481 1481 1480 1479 1479 1478 1477 1475 1474 1473 1471 1470 1468 1467 1465 1463 1461 1459 1457 1455 1453 1450 1448 1445 1443 1441 1439 1437 1435 1433 1431 1430 1428 1427 1426 1424 1423 1422 1420 1419 1418 1417 1416 1415
1478 1477 1477 1476 1476 1475 1474 1473 1472 1471 1469 1468 1466 1464 1462 1460 1458 1456 1455 1453 1451 1448 1446 1444 1441 1439 1437 1435 1433 1431 1429 1428 1426 1425 1424 1422 1421 1420 1419 1418 1417 1415 1415 1414
1475 1475 1475 1474 1473 1472 1471 1471 1470 1468 1467 1465 1464 1462 1460 1458 1456 1454 1452 1450 1447 1445 1443 1441 1439 1437 1435 1433 1431 1429 1427 1426 1424 1423 1422 1420 1419 1418 1417 1416 1415 1414 1413 1413
1472 1472 1472 1471 1471 1470 1469 1468 1467 1466 1464 1463 1461 1459 1458 1456 1454 1452 1450 1447 1445 1442 1440 1438 1437 1435 1432 1431 1429 1427 1425 1424 1423 1421 1420 1418 1417 1416 1415 1414 1413 1412 1412 1411
1470 1470 1469 1469 1468 1467 1466 1465 1464 1463 1462 1460 1459 1457 1455 1453 1452 1449 1447 1445 1443 1441 1438 1436 1434 1432 1430 1428 1427 1425 1423 1422 1420 1419 1418 1416 1415 1414 1413 1412 1412 1411 1410 1409
1468 1467 1467 1466 1465 1465 1464 1463 1462 1460 1459 1458 1456 1454 1452 1451 1449 1447 1444 1442 1440 1438 1436 1434 1432 1430 1428 1426 1425 1423 1421 1420 1418 1417 1416 1415 1413 1412 1411 1410 1409 1408 1407 1407
1466 1465 1464 1464 1463 1462 1461 1460 1459 1458 1457 1455 1454 1452 1450 1448 1446 1444 1442 1440 1438 1436 1433 1431 1429 1428 1426 1424 1422 1421 1419 1418 1416 1415 1414 1413 1412 1410 1409 1408 1407 1406 1405 1404
1464 1463 1462 1461 1460 1460 1459 1458 1457 1456 1454 1453 1451 1450 1448 1446 1444 1442 1439 1438 1436 1434 1431 1429 1427 1425 1424 1422 1420 1419 1417 1416 1415 1413 1412 1411 1410 1408 1407 1406 1405 1404 1403 1402
1462 1461 1460 1460 1459 1458 1457 1456 1455 1454 1453 1451 1449 1448 1446 1444 1442 1440 1439 1436 1434 1431 1429 1427 1425 1423 1421 1420 1418 1417 1415 1414 1412 1411 1410 1408 1407 1406 1405 1403 1402 1401 1400 1399
1460 1459 1458 1457 1457 1456 1455 1454 1453 1452 1450 1449 1447 1446 1444 1442 1440 1438 1437 1434 1432 1430 1427 1425 1423 1421 1419 1418 1416 1414 1413 1412 1410 1409 1407 1406 1404 1403 1402 1401 1400 1399 1398 1397
1458 1457 1456 1456 1455 1454 1453 1452 1451 1449 1448 1446 1445 1444 1442 1441 1439 1437 1435 1433 1431 1428 1426 1423 1421 1419 1417 1416 1414 1412 1411 1409 1408 1406 1405 1403 1402 1401 1400 1398 1397 1396 1395 1394
1456 1455 1455 1454 1453 1452 1451 1450 1449 1447 1446 1445 1443 1442 1440 1439 1437 1435 1433 1431 1429 1427 1424 1422 1420 1418 1416 1414 1412 1410 1409 1407 1406 1404 1402 1401 1399 1398 1397 1395 1394 1393 1392 1391